Theta_e
328 330 333 335 334 335 326 325 326 334 341 340 343 345 348 351 350 348 348 349 348 348 351 350 349 349 349 349 348 347 347 347 347 348 349 349 348 348 352 357 355 353 338 336
336 335 335 335 335 335 338 339 338 340 339 337 343 349 351 352 351 351 353 354 354 353 348 351 350 349 350 350 349 348 348 348 348 349 350 352 354 356 360 361 360 352 345 340
334 333 334 336 334 335 337 341 343 339 337 341 345 349 350 351 350 350 353 355 356 355 354 349 349 351 351 350 351 350 351 350 350 352 353 356 358 359 361 361 357 354 348 335
334 335 340 335 333 336 338 343 342 337 338 344 344 345 348 348 350 350 350 353 356 357 356 353 355 353 351 351 352 354 357 355 354 356 357 358 360 361 360 359 356 355 340 337
336 337 337 336 336 336 335 340 340 344 341 339 344 344 345 346 346 348 349 352 359 361 362 357 356 353 353 355 355 358 358 359 361 359 361 361 362 362 359 358 357 342 341 338
336 339 340 337 334 335 334 343 337 340 340 340 338 345 337 340 345 347 348 349 353 357 360 359 363 361 361 360 363 363 363 362 361 363 363 363 364 362 360 357 353 343 338 340
335 335 341 336 337 337 335 341 338 335 334 333 337 336 334 333 341 347 346 349 348 346 349 363 364 363 363 362 362 363 363 364 364 364 363 363 364 363 362 355 347 342 340 341
335 337 341 333 338 339 339 333 337 333 332 332 331 332 341 338 343 348 349 349 350 350 350 348 361 364 363 365 365 365 366 366 364 363 362 362 362 361 356 351 343 339 342 341
339 340 333 335 334 334 333 332 331 336 334 332 332 336 342 341 342 341 343 349 350 349 353 341 353 362 365 364 364 364 365 366 363 361 359 359 357 352 349 344 340 341 343 341
335 338 334 332 335 334 331 332 333 335 335 336 336 335 336 336 337 339 341 349 349 350 348 339 342 349 353 357 358 361 359 360 356 356 353 350 349 349 348 345 340 339 340 340
333 334 331 333 332 335 332 330 330 335 333 333 334 333 334 335 336 336 344 348 347 348 344 341 342 339 350 353 359 357 354 353 351 348 346 345 345 344 339 339 340 339 340 339
336 335 335 331 330 333 332 331 335 335 332 331 331 333 332 333 336 337 338 350 349 348 344 339 337 340 346 351 351 353 352 350 349 349 348 347 342 339 340 340 339 338 338 338
330 331 334 333 331 332 331 331 333 332 332 331 330 331 331 331 337 337 341 346 346 352 353 346 340 339 338 339 343 347 349 350 348 348 348 346 343 340 339 338 339 338 339 339
328 326 331 333 333 334 334 334 334 335 334 332 331 330 330 331 335 338 338 341 340 345 348 349 347 345 351 343 343 348 349 346 349 347 346 346 344 340 339 338 339 339 338 336
330 330 332 333 334 337 337 338 339 338 339 334 332 330 330 330 331 338 338 340 346 348 347 344 337 344 353 353 349 349 346 347 344 345 345 344 342 340 340 339 339 339 339 336
332 332 333 337 337 338 339 340 341 341 340 339 333 332 331 331 337 336 333 346 350 348 346 343 333 340 351 349 352 351 348 344 346 345 344 340 341 342 341 339 339 339 338 336
335 334 336 336 336 337 338 341 341 343 341 338 336 333 332 335 340 341 343 342 339 342 345 347 348 346 345 340 347 342 336 342 340 344 343 342 341 342 343 339 338 338 339 337
335 336 336 335 335 336 337 339 342 345 340 338 335 334 333 340 340 340 336 343 342 345 348 344 342 346 343 340 339 336 335 335 340 339 342 341 341 343 343 340 338 335 331 328
335 334 333 332 333 333 336 338 340 342 344 341 336 335 336 337 339 341 344 345 345 344 345 342 338 343 340 337 337 335 332 332 341 338 340 339 339 340 341 340 338 333 329 323
332 331 330 330 330 331 333 336 338 341 342 341 340 337 337 339 343 345 345 345 344 345 345 340 340 343 342 340 337 335 330 334 335 336 338 336 338 339 342 339 337 331 324 323
330 329 328 328 329 329 329 330 335 337 340 339 341 337 328 329 341 345 342 339 342 337 337 338 342 340 337 335 333 331 331 337 336 336 338 337 337 340 340 338 334 326 324 322
329 329 328 328 328 327 327 327 329 336 338 341 340 341 338 339 344 344 343 339 340 340 341 342 340 336 335 336 333 328 331 337 337 339 337 337 337 337 338 336 331 325 324 323
329 329 329 329 328 327 327 326 327 328 330 335 336 338 337 340 346 346 344 342 341 341 340 337 337 339 339 336 330 327 328 334 334 335 335 336 337 338 337 335 324 326 323 322
330 330 330 329 328 327 326 326 326 326 325 327 332 338 341 339 335 341 341 341 342 340 339 336 335 336 334 328 327 326 323 325 331 334 334 335 337 337 332 325 326 323 321 322
330 329 329 328 327 327 326 325 325 325 325 329 334 336 337 339 341 340 338 337 338 339 339 338 334 330 325 327 327 325 324 325 326 331 332 335 335 335 325 325 323 322 323 323
328 328 326 328 327 326 326 325 325 326 326 326 326 328 334 338 340 338 340 340 338 338 335 333 328 327 328 328 328 326 326 327 326 330 331 331 324 325 324 323 322 323 323 323
326 326 326 325 324 326 327 327 324 324 324 325 326 329 331 332 336 335 334 339 339 336 335 332 327 328 328 328 327 324 325 326 327 328 329 329 327 324 325 325 324 322 322 322
Wind_Speed
11 11 7 9 13 18 6 8 4 3 14 10 9 10 12 15 10 7 8 5 3 6 10 27 26 27 27 30 33 34 35 36 34 31 27 25 27 27 23 23 19 16 10 25
7 12 14 6 17 19 12 14 18 12 7 10 17 24 21 14 15 14 13 11 9 3 11 15 24 26 25 27 30 33 35 36 35 33 29 26 25 22 21 24 26 22 14 13
4 11 10 3 14 8 5 14 11 1 7 8 11 11 20 18 14 11 11 11 9 10 5 17 18 21 25 27 26 31 32 34 34 31 30 27 24 24 28 30 29 25 18 11
2 6 3 5 11 8 7 18 24 10 3 12 17 25 24 18 12 10 10 9 8 9 10 8 1 22 22 24 27 29 28 31 32 31 30 29 26 28 30 30 26 19 15 9
2 1 2 6 4 5 8 6 19 22 19 29 8 29 21 15 11 11 10 10 9 7 8 4 8 7 13 22 24 25 27 24 25 31 28 27 29 28 26 25 27 19 12 7
3 2 4 3 9 20 7 3 17 24 21 23 37 9 9 19 13 9 9 9 7 8 8 7 12 4 2 16 16 18 19 21 22 24 25 25 27 28 26 26 25 10 10 6
3 3 3 7 15 8 3 3 18 20 16 22 10 12 8 21 12 2 3 6 7 8 10 6 6 5 6 6 8 8 8 14 19 20 20 20 23 27 28 24 16 13 10 8
2 3 3 15 8 6 5 19 11 0 14 16 14 37 33 10 19 7 4 5 8 7 9 2 2 1 3 6 8 6 11 14 13 15 17 22 22 24 25 19 12 10 11 13
1 2 7 10 5 10 1 19 16 2 15 12 13 21 24 25 5 3 2 5 3 2 6 2 2 3 5 6 9 11 11 15 13 16 18 22 22 21 17 10 12 12 14 17
3 4 2 3 5 4 11 13 22 10 10 9 15 1 7 9 11 10 2 5 5 3 7 5 2 0 1 2 3 5 13 14 15 16 16 13 12 13 14 17 16 15 18 20
4 6 2 7 12 10 14 12 12 15 12 18 10 7 7 8 13 12 6 7 3 2 6 6 6 3 5 5 9 10 10 10 10 9 6 7 11 15 14 13 14 15 17 18
2 7 7 8 15 17 14 16 33 35 20 12 14 10 12 13 6 12 3 9 9 4 8 6 8 9 3 4 7 9 9 8 7 8 7 9 9 11 13 16 14 12 14 15
1 14 21 18 6 13 16 15 15 7 9 12 14 9 11 16 9 5 4 7 1 2 4 2 4 11 5 1 3 7 10 9 6 9 12 11 10 11 17 17 17 18 14 12
7 7 26 28 12 3 7 11 13 14 16 15 16 15 16 18 10 3 6 3 6 5 7 1 2 10 8 5 2 6 5 6 8 15 16 13 12 14 17 20 23 22 22 15
13 20 22 5 8 9 9 10 13 15 17 17 15 15 16 17 18 6 4 2 2 5 11 14 7 3 10 7 6 6 9 10 12 15 14 16 16 17 14 24 26 24 26 23
3 5 6 8 9 11 13 13 14 16 18 15 12 15 14 13 11 12 13 6 2 4 12 9 7 6 16 13 11 11 11 13 14 16 11 9 21 22 20 23 28 29 27 27
4 4 5 7 6 9 12 14 14 20 15 13 10 9 9 10 8 7 14 9 5 6 9 9 9 10 9 11 12 12 14 19 18 17 15 12 15 26 27 25 25 28 26 24
2 1 1 4 6 9 13 15 18 22 13 11 10 7 8 5 4 2 4 9 6 6 8 11 13 12 9 13 13 15 16 15 13 10 17 17 16 22 25 25 27 26 18 13
5 4 2 4 6 9 11 14 17 16 14 9 6 7 7 5 7 9 3 7 6 8 11 11 13 14 12 14 16 16 14 12 15 14 13 14 19 20 22 21 27 23 17 14
4 3 2 3 5 8 11 13 13 15 14 8 12 13 11 7 4 10 12 14 14 16 17 14 10 12 14 14 16 16 16 12 12 13 15 12 16 19 19 20 24 26 21 15
5 4 4 6 7 9 11 11 12 16 14 14 13 9 15 18 9 16 14 17 15 11 10 11 15 16 16 13 12 15 13 13 11 11 10 13 17 14 16 24 26 25 20 18
3 3 4 6 7 11 14 11 14 11 11 9 11 11 10 11 11 13 12 12 11 9 9 14 15 14 11 10 13 12 12 14 12 10 10 13 15 19 15 22 28 31 23 17
3 1 4 8 9 13 15 11 12 13 14 15 18 13 12 12 10 11 16 12 10 9 13 13 11 9 11 14 17 13 12 14 14 11 12 12 11 14 21 22 30 23 20 18
6 7 9 11 13 13 15 17 15 14 15 16 18 11 11 17 14 12 10 14 13 15 13 10 11 12 12 13 13 14 13 14 17 16 14 11 9 20 24 29 30 26 22 19
13 13 15 15 17 16 19 19 17 14 17 13 10 12 13 13 15 12 15 12 10 11 13 12 11 9 7 9 10 12 15 12 12 14 14 13 15 23 31 31 35 33 22 28
18 18 18 19 21 21 24 20 18 19 14 16 19 17 10 13 14 12 13 15 9 7 8 7 4 5 5 10 14 20 13 5 9 13 12 15 23 31 39 37 36 33 32 18
20 20 18 22 21 20 24 23 20 20 18 18 16 14 14 14 13 14 14 13 11 7 8 5 4 6 7 9 16 10 8 2 8 10 13 12 26 29 29 31 35 25 21 19
Wind_Direction
286 313 345 337 338 9 250 237 204 247 127 129 117 111 92 81 85 122 135 150 231 177 188 200 199 204 209 213 217 225 228 229 236 238 241 243 240 241 242 229 225 185 100 337
321 347 348 345 21 4 5 7 6 142 95 103 115 115 97 82 79 58 59 61 70 68 222 190 209 211 214 219 222 226 229 233 232 234 235 241 242 236 231 226 219 244 218 349
311 326 6 8 353 352 332 38 347 140 244 138 117 126 127 113 96 79 54 46 44 39 34 222 215 214 225 228 228 228 230 231 230 230 234 233 232 224 224 224 240 239 228 331
297 19 26 299 347 30 24 33 15 17 66 138 135 122 122 118 118 101 90 63 46 35 30 50 133 236 241 234 229 226 224 224 226 227 226 228 227 220 224 233 249 236 285 338
9 110 321 324 5 12 22 21 45 40 21 9 19 106 89 107 102 110 92 75 46 39 47 349 352 242 268 235 224 218 222 220 218 224 223 223 222 223 234 230 227 227 293 304
8 341 220 322 350 346 320 42 49 64 28 18 22 42 335 12 54 73 85 98 61 42 26 4 38 58 337 198 202 207 212 220 228 223 224 223 220 225 233 231 223 261 291 249
116 236 67 315 330 333 61 10 333 59 42 27 38 341 326 52 36 47 109 108 76 58 56 76 58 86 126 181 186 201 221 217 214 215 220 223 224 221 228 220 232 280 265 199
251 175 169 345 355 78 257 318 298 288 91 16 347 13 300 181 238 212 164 99 55 25 17 28 200 238 203 205 199 226 220 215 212 213 216 218 220 219 216 217 254 248 189 182
308 180 227 296 183 185 7 352 311 141 112 119 123 235 209 273 247 257 280 149 118 325 348 29 256 267 224 214 218 233 202 201 200 206 213 216 218 212 210 221 242 209 202 194
34 230 245 357 4 266 11 339 302 308 281 221 220 143 338 0 359 12 16 101 129 143 294 340 353 352 127 225 251 157 168 180 186 193 197 215 213 217 231 245 219 201 195 187
225 280 306 111 102 163 66 39 277 271 322 316 328 345 342 347 345 338 356 183 185 272 278 285 338 36 89 117 148 160 160 174 186 194 220 221 226 237 241 220 219 214 210 204
300 217 194 249 173 163 191 261 262 257 261 277 298 301 317 333 320 322 309 199 186 222 267 298 330 343 57 115 141 159 155 167 203 217 230 261 259 210 210 203 215 232 220 201
51 323 281 285 202 216 246 270 305 317 310 311 308 307 286 286 269 309 302 147 143 265 273 280 262 285 288 154 137 158 145 150 189 241 247 255 270 241 219 210 208 203 205 188
201 275 285 255 241 268 279 317 311 308 304 296 294 289 274 281 268 228 239 289 315 284 254 196 310 283 286 289 192 157 193 224 221 232 244 253 261 237 224 211 199 192 194 192
223 232 243 6 354 7 348 331 323 294 303 260 278 286 294 301 309 188 210 278 265 292 248 249 225 247 257 255 249 252 236 246 245 245 248 252 227 223 221 206 204 201 195 193
224 301 23 14 4 351 351 326 309 306 308 322 290 286 288 314 199 272 273 276 214 283 295 287 197 215 232 242 249 264 257 258 248 262 269 255 195 210 208 203 208 205 201 201
70 18 351 9 10 348 321 324 309 315 304 311 328 303 319 342 193 181 197 216 252 290 297 291 241 236 244 236 256 276 271 265 273 236 250 243 220 202 212 211 217 210 215 220
140 194 5 13 2 334 328 331 333 3 333 302 309 321 332 337 31 208 46 271 263 236 257 282 267 259 241 254 270 279 266 262 271 255 241 246 235 226 221 218 210 198 199 204
153 117 58 352 339 330 335 340 342 341 1 350 294 282 288 292 314 305 212 249 279 281 267 275 262 252 245 259 277 280 269 262 247 267 264 248 242 239 236 219 200 200 199 181
112 83 37 9 336 344 346 350 352 353 337 334 314 281 265 287 299 301 290 296 292 283 283 282 271 258 263 272 284 290 287 281 273 248 249 257 239 240 239 220 199 200 193 186
101 66 30 354 351 359 341 335 350 339 341 337 334 324 336 231 259 274 280 278 279 272 267 263 261 264 275 285 289 281 273 265 267 256 249 237 237 239 215 196 194 197 195 182
102 68 6 341 348 353 338 341 348 335 323 324 316 306 288 277 275 278 293 281 275 257 242 251 248 258 261 271 297 293 262 256 264 257 265 249 240 226 221 196 188 195 187 177
48 350 312 322 325 334 330 334 340 323 322 315 313 304 285 271 269 294 277 281 273 259 249 244 254 254 266 289 292 286 280 248 248 241 248 255 262 214 196 185 179 179 180 175
274 281 285 297 309 316 317 320 315 315 308 302 303 296 298 309 290 285 267 262 254 258 258 252 255 262 273 273 280 301 295 266 236 235 238 244 229 192 183 179 183 168 186 201
264 272 282 294 303 300 302 296 295 307 315 321 334 287 302 297 313 297 283 285 260 242 254 263 270 274 260 277 304 321 316 282 231 219 222 225 202 193 179 179 173 164 159 151
265 276 278 278 285 290 292 304 298 302 307 310 303 296 295 310 292 299 299 281 262 291 270 272 257 164 198 255 309 318 319 283 193 199 206 195 177 175 179 175 161 155 162 156
278 270 271 286 285 289 292 280 290 299 298 305 299 298 299 292 298 306 299 271 263 247 278 283 207 214 257 273 313 318 345 145 177 187 197 198 187 178 179 179 176 161 148 169